"Pseudo-MPEC" for P10InGX

Created 2018 Jul 14 3:18:32 UT using Find_Orb

Click here for an explanation of pseudo-MPECs

 
 Astrometry: 
     P10InGX  C2018 07 11m.AstrometryQ+XcrbE#H^PPF;(=K:oY!Owb$kSi_!Qk`/TXKS\tF51
     P10InGX  C2018 07 11k2J7',T,!IeVR=W.Lredacted;nMQ_g;mFfF\:8H))K85aU\nr%ZF51
     P10InGX  C2018 07 11L%(SVAAKhA85W,'YKdbvQ`82287G?OLLseeKmx9hj(yvcXGNtwPLF51
     P10InGX  C2018 07 11SnfkZy^qF#gO):Ql:?\B?X,wZZLWdR13Vmq:?=q,m!GRlaKNEOCPF51

Station data:
(F51) Pan-STARRS 1, Haleakala  (N20.707235 W156.255910)  US/Hawaii.
   Observers N. Primak, A. Schultz, S. Watters, J. Thiel, T. Goggia. Measurer
   PS1 Science Consortium. 1.8-m Ritchey-Chrétien + CCD.

Orbital elements:  P10InGX
   Perihelion 2019 Aug 14.092590 +/- 860 TT =  2:13:19 (JD 2458709.592590)
Epoch 2018 Jul 12.0 TT = JDT 2458311.5                        AutoNEOCP
M 250.18114 +/- 80                  (J2000 ecliptic)
n   0.27586259 +/- 0.25             Peri.  133.79008 +/- 90
a   2.33708317 +/- 1.41             Node   304.39540 +/- 46
e   0.1385414 +/- 0.269             Incl.    5.19668 +/- 33
P   3.57                   H 17.1   G  0.15   U 11.8  SR
q 2.01330020 +/- 2.24    Q 2.66086614 +/- 58.1
From 4 observations 2018 July 11 (48.5 min); mean residual 0".05
Residuals in arcseconds: 
180711 F51  .02-  .02-    180711 F51  .08+  .05-    
180711 F51  .02-  .06+    180711 F51  .05-  .01+    

Ephemerides (geocentric):
Date (UTC) HH   RA              Dec         delta   r     elong  mag " sig PA
---- -- -- --  -------------   -----------  ------ ------ -----  --- ---- ---
2018 07 14 03  22 04 27.669   -10 15 48.47  1.6006 2.4808 141.8 20.9 968' 173
2018 07 14 04  22 04 26.537   -10 15 48.12  1.6002 2.4807 141.9 20.9 999' 173
2018 07 14 05  22 04 25.403   -10 15 47.78  1.5998 2.4807 141.9 20.9  17d 173
2018 07 14 06  22 04 24.265   -10 15 47.45  1.5995 2.4806 142.0 20.9  17d 173
2018 07 14 07  22 04 23.125   -10 15 47.13  1.5991 2.4806 142.0 20.9  17d 173
2018 07 14 08  22 04 21.981   -10 15 46.83  1.5987 2.4805 142.1 20.9  17d 173
2018 07 14 09  22 04 20.835   -10 15 46.55  1.5983 2.4805 142.1 20.9  17d 173
2018 07 14 10  22 04 19.686   -10 15 46.27  1.5980 2.4804 142.2 20.9  17d 173
2018 07 14 11  22 04 18.534   -10 15 46.01  1.5976 2.4803 142.2 20.9  17d 173
2018 07 14 12  22 04 17.380   -10 15 45.77  1.5972 2.4803 142.2 20.9  17d 173
2018 07 14 13  22 04 16.222   -10 15 45.53  1.5969 2.4802 142.3 20.9  18d 173
2018 07 14 14  22 04 15.062   -10 15 45.31  1.5965 2.4802 142.3 20.9  18d 173
2018 07 14 15  22 04 13.899   -10 15 45.11  1.5961 2.4801 142.4 20.9  18d 173
2018 07 14 16  22 04 12.733   -10 15 44.92  1.5957 2.4801 142.4 20.9  18d 173
2018 07 14 17  22 04 11.564   -10 15 44.74  1.5954 2.4800 142.5 20.9  18d 173
2018 07 14 18  22 04 10.392   -10 15 44.57  1.5950 2.4800 142.5 20.9  18d 173
2018 07 14 19  22 04 09.218   -10 15 44.42  1.5946 2.4799 142.6 20.9  18d 173
2018 07 14 20  22 04 08.040   -10 15 44.28  1.5942 2.4799 142.6 20.9  18d 173
2018 07 14 21  22 04 06.860   -10 15 44.16  1.5939 2.4798 142.6 20.9  18d 173
2018 07 14 22  22 04 05.677   -10 15 44.05  1.5935 2.4797 142.7 20.9  18d 173
2018 07 14 23  22 04 04.491   -10 15 43.95  1.5931 2.4797 142.7 20.9  18d 173
2018 07 15 00  22 04 03.302   -10 15 43.87  1.5928 2.4796 142.8 20.9  18d 173
2018 07 15 01  22 04 02.111   -10 15 43.80  1.5924 2.4796 142.8 20.9  18d 173
2018 07 15 02  22 04 00.916   -10 15 43.74  1.5920 2.4795 142.9 20.9  18d 173
2018 07 15 03  22 03 59.719   -10 15 43.70  1.5917 2.4795 142.9 20.9  18d 173
2018 07 15 04  22 03 58.519   -10 15 43.67  1.5913 2.4794 143.0 20.9  18d 173
2018 07 15 05  22 03 57.316   -10 15 43.65  1.5909 2.4794 143.0 20.9  18d 173
2018 07 15 06  22 03 56.111   -10 15 43.65  1.5906 2.4793 143.0 20.9  18d 173
2018 07 15 07  22 03 54.902   -10 15 43.66  1.5902 2.4792 143.1 20.9  18d 173
2018 07 15 08  22 03 53.691   -10 15 43.68  1.5898 2.4792 143.1 20.9  18d 173
2018 07 15 09  22 03 52.477   -10 15 43.72  1.5895 2.4791 143.2 20.9  18d 173
2018 07 15 10  22 03 51.260   -10 15 43.77  1.5891 2.4791 143.2 20.9  18d 173
2018 07 15 11  22 03 50.040   -10 15 43.84  1.5887 2.4790 143.3 20.9  18d 173
2018 07 15 12  22 03 48.818   -10 15 43.92  1.5884 2.4790 143.3 20.9  18d 173
2018 07 15 13  22 03 47.592   -10 15 44.01  1.5880 2.4789 143.4 20.9  18d 173
2018 07 15 14  22 03 46.364   -10 15 44.11  1.5876 2.4789 143.4 20.9  18d 173
2018 07 15 15  22 03 45.133   -10 15 44.23  1.5873 2.4788 143.4 20.9  18d 173
2018 07 15 16  22 03 43.899   -10 15 44.36  1.5869 2.4788 143.5 20.9  18d 173
2018 07 15 17  22 03 42.662   -10 15 44.51  1.5865 2.4787 143.5 20.9  18d 173
2018 07 15 18  22 03 41.423   -10 15 44.67  1.5862 2.4786 143.6 20.9  18d 173
2018 07 15 19  22 03 40.181   -10 15 44.84  1.5858 2.4786 143.6 20.9  18d 173
2018 07 15 20  22 03 38.936   -10 15 45.03  1.5854 2.4785 143.7 20.9  18d   7
2018 07 15 21  22 03 37.688   -10 15 45.23  1.5851 2.4785 143.7 20.9  18d   7
2018 07 15 22  22 03 36.437   -10 15 45.44  1.5847 2.4784 143.8 20.9  18d   7
2018 07 15 23  22 03 35.184   -10 15 45.67  1.5844 2.4784 143.8 20.9  18d   7
2018 07 16 00  22 03 33.927   -10 15 45.91  1.5840 2.4783 143.8 20.9  18d   7
2018 07 16 01  22 03 32.668   -10 15 46.16  1.5836 2.4783 143.9 20.9  18d   7
2018 07 16 02  22 03 31.407   -10 15 46.42  1.5833 2.4782 143.9 20.9  18d   7